[[{"header":{"parameterUnit":"m.s-1","parameterCategory":1,"la1":30.2991,"la2":30.254,"lo1":-89.0895,"lo2":-89.0444,"dy":0.0017,"dx":0.0017,"nx":28,"ny":28,"refTime":"2024-05-04T21:00:00:Z","depth":0,"parameterNumber":2,"parameterNumberName":"U-component_of_WINDS"},"data":[0,0,0,0,0,0,0,0,0,0,0,0,0,0,0,0,0,0,0,0,0,0,0,0,0,0,0,0,0,0,0,0,0,0,0,0,0,0,0,0,0,0,0,0,0,0,0,0,0,0,0,0,0,0,0,0,0,0,-1.5848,-1.5849,0,-1.5888,-1.5888,-1.5889,-1.587,-1.5869,-1.5868,-1.5868,-1.591,-1.5912,-1.5914,0,0,0,0,0,0,0,0,0,0,0,0,0,-1.5759,-1.5761,-1.5848,-1.5849,-1.5849,-1.5888,-1.5888,-1.5889,-1.5871,-1.5869,-1.5868,-1.5867,-1.5909,-1.5911,-1.5914,0,0,0,0,0,0,0,0,0,0,0,0,0,-1.5798,-1.5761,-1.5848,-1.5845,-1.5845,-1.5888,-1.5888,-1.5889,-1.5871,-1.5869,-1.5868,-1.5866,-1.5908,-1.5911,-1.5914,-1.5963,0,0,-1.5924,-1.5925,0,0,0,0,0,0,0,0,-1.5796,-1.5802,-1.5845,-1.5845,-1.5845,-1.5873,-1.5872,-1.5914,-1.5871,-1.5861,-1.5867,-1.5866,-1.5899,-1.5902,-1.5913,-1.5965,-1.5967,-1.5924,-1.5926,-1.5927,-1.5928,0,0,0,0,0,0,0,-1.5793,-1.58,-1.5864,-1.5845,-1.5846,-1.5842,-1.5846,-1.588,-1.5888,-1.5862,-1.5861,-1.5865,-1.5899,-1.591,-1.5914,-1.5968,-1.5924,-1.5927,-1.5928,-1.593,-1.6063,-1.6065,0,0,0,0,0,0,-1.579,-1.5798,-1.5863,-1.5865,-1.5816,-1.5845,-1.5849,-1.5865,-1.5887,-1.5889,-1.5867,-1.5864,-1.5906,-1.5911,-1.5916,-1.5975,-1.5927,-1.593,-1.5932,-1.6062,-1.6064,-1.6066,0,0,0,0,0,0,-1.5789,-1.5796,-1.5861,-1.5831,-1.5839,-1.5848,-1.5866,-1.5867,-1.5879,-1.5891,-1.5893,-1.5877,-1.5905,-1.5911,-1.5952,-1.5976,-1.5931,-1.5934,-1.606,-1.6062,-1.6065,-1.6093,0,0,0,0,0,0,-1.5786,-1.5796,-1.5814,-1.5832,-1.5841,-1.5896,-1.5868,-1.5869,-1.5884,-1.5881,-1.5901,-1.5903,-1.5904,-1.5947,-1.5955,-1.5979,-1.5937,-1.6058,-1.6061,-1.6064,-1.609,-1.6097,-1.6102,0,0,0,0,0,-1.5783,-1.582,-1.5815,-1.5823,-1.5863,-1.5897,-1.5902,-1.5902,-1.5886,-1.5904,-1.5913,-1.5902,-1.5972,-1.5952,-1.596,-1.5986,-1.6056,-1.606,-1.6064,-1.6088,-1.6095,-1.6102,0,0,0,0,0,0,-1.5805,-1.5823,-1.5817,-1.5861,-1.5878,-1.5894,-1.5917,-1.591,-1.5933,-1.5929,-1.5929,-1.5934,-1.5976,-1.5985,-1.5961,-1.6035,-1.6012,-1.6017,-1.6027,-1.6035,-1.604,-1.6037,-1.5939,0,0,0,0,0,-1.5816,-1.5841,-1.5855,-1.5893,-1.5902,-1.5908,-1.5923,-1.5922,-1.5939,-1.5946,-1.5957,-1.5976,-1.6002,-1.6019,-1.6044,-1.6092,-1.6097,-1.6114,-1.612,-1.6125,-1.6129,-1.6157,-1.6165,-1.6078,-1.6078,-1.6078,0,0,-1.5836,-1.5849,-1.5865,-1.5898,-1.591,-1.5938,-1.5914,-1.5944,-1.5964,-1.5951,-1.599,-1.5999,-1.6019,-1.6064,-1.6085,-1.6073,-1.6155,-1.613,-1.6133,-1.6135,-1.6161,-1.617,-1.6177,-1.6081,-1.608,-1.608,0,0,-1.5888,-1.5901,-1.5933,-1.5947,-1.5967,-1.5971,-1.598,-1.5997,-1.6003,-1.6042,-1.6033,-1.6058,-1.6103,-1.6118,-1.6131,-1.6191,-1.6183,-1.6199,-1.6229,-1.6256,-1.6263,-1.6269,-1.629,-1.6298,-1.6204,-1.6204,-1.6204,0,-1.5912,-1.5952,-1.5951,-1.5982,-1.5997,-1.5986,-1.602,-1.6034,-1.6061,-1.6072,-1.6059,-1.6116,-1.6129,-1.6177,-1.6192,-1.6203,-1.6213,-1.6196,-1.6262,-1.6268,-1.6273,-1.6294,-1.6302,-1.6206,-1.6206,-1.6206,-1.6205,0,-1.598,-1.6008,-1.6032,-1.6059,-1.6076,-1.6108,-1.6114,-1.6132,-1.613,-1.6136,-1.6177,-1.6192,-1.622,-1.6232,-1.623,-1.6281,-1.6273,-1.6261,-1.6237,-1.6283,-1.6303,-1.631,-1.6209,-1.6208,-1.6207,-1.6207,0,0,-1.6045,-1.6072,-1.6081,-1.6093,-1.6115,-1.6137,-1.617,-1.6197,-1.6213,-1.6233,-1.626,-1.6299,-1.6288,-1.6304,-1.6304,-1.6327,-1.6374,-1.6312,-1.6313,-1.6323,-1.6432,-1.644,-1.6449,-1.6369,-1.6371,-1.6372,-1.643,0,-1.6099,-1.6154,-1.6155,-1.6207,-1.6233,-1.6225,-1.6253,-1.627,-1.6278,-1.6302,-1.631,-1.6338,-1.6321,-1.6331,-1.6354,-1.6363,-1.6396,-1.6359,-1.6395,-1.6396,-1.6389,-1.6459,-1.6468,-1.6521,-1.6437,-1.6439,-1.644,0,-1.6167,-1.6189,-1.6243,-1.6262,-1.6274,-1.6299,-1.6324,-1.6347,-1.6368,-1.6371,-1.639,-1.6387,-1.6421,-1.6397,-1.6445,-1.642,-1.6435,-1.6442,-1.6445,-1.6447,-1.642,-1.6463,-1.6539,-1.6546,-1.6451,-1.645,-1.645,0,-1.6209,-1.6253,-1.629,-1.6301,-1.6325,-1.6343,-1.6354,-1.6372,-1.6389,-1.6412,-1.6423,-1.645,-1.6464,-1.6486,-1.6491,-1.6473,-1.6539,-1.6515,-1.6543,-1.6543,-1.6556,-1.6555,-1.6635,-1.6567,-1.6567,-1.6567,-1.6567,0,-1.6268,-1.6301,-1.631,-1.6333,-1.637,-1.6373,-1.641,-1.642,-1.6437,-1.6462,-1.6458,-1.6482,-1.6487,-1.6513,-1.6518,-1.6557,-1.6564,-1.6568,-1.6569,-1.6568,-1.6567,-1.6577,-1.6573,-1.6569,-1.6569,-1.6568,-1.6568,0,-1.6321,-1.6328,-1.6368,-1.6388,-1.6393,-1.642,-1.6437,-1.646,-1.6468,-1.65,-1.6508,-1.652,-1.655,-1.6558,-1.6594,-1.6597,-1.6643,-1.6641,-1.6636,-1.6636,-1.6663,-1.6661,-1.6751,-1.6763,-1.6689,-1.6689,-1.669,0,-1.6357,-1.6383,-1.6405,-1.6422,-1.6433,-1.646,-1.6477,-1.6481,-1.6499,-1.6525,-1.6545,-1.6575,-1.6599,-1.6648,-1.6661,-1.6689,-1.6687,-1.6717,-1.6691,-1.669,-1.6687,-1.6685,-1.6688,-1.6721,-1.6722,-1.6723,-1.6723,0,-1.6421,-1.6424,-1.6448,-1.6474,-1.6495,-1.6516,-1.6536,-1.655,-1.6557,-1.6578,-1.6609,-1.6628,-1.6665,-1.6695,-1.6724,-1.6736,-1.6731,-1.6731,-1.6739,-1.6738,-1.6735,-1.6737,-1.6649,-1.6729,-1.6728,-1.6728,-1.6728,-1.6727,-1.6467,-1.6489,-1.6509,-1.6536,-1.6552,-1.6571,-1.6594,-1.6604,-1.663,-1.666,-1.6662,-1.6695,-1.6717,-1.6755,-1.6769,-1.6796,-1.6787,-1.6798,-1.6801,-1.6804,-1.6806,-1.6731,-1.6801,-1.6801,-1.6801,-1.6801,-1.6801,0,-1.6531,-1.6543,-1.6569,-1.6597,-1.6619,-1.6613,-1.6635,-1.6654,-1.6684,-1.6703,-1.6727,-1.6764,-1.6793,-1.6809,-1.6838,-1.6857,-1.6856,-1.6865,-1.6863,-1.6866,-1.6812,-1.6802,-1.6865,-1.6865,-1.6865,-1.6865,-1.6865,-1.6865,-1.6566,-1.6604,-1.6609,-1.6655,-1.6668,-1.67,-1.6714,-1.6732,-1.6748,-1.6788,-1.6812,-1.6822,-1.6841,-1.6872,-1.6899,-1.6903,-1.6914,-1.6924,-1.6927,-1.6876,-1.687,-1.6863,-1.6854,-1.6927,-1.6927,-1.6978,-1.6979,-1.6979]},{"header":{"parameterUnit":"m.s-1","parameterCategory":1,"la1":30.2991,"la2":30.254,"lo1":-89.0895,"lo2":-89.0444,"dy":0.0017,"dx":0.0017,"nx":28,"ny":28,"refTime":"2024-05-04T21:00:00:Z","depth":0,"parameterNumber":3,"parameterNumberName":"V-component_of_WINDS"},"data":[0,0,0,0,0,0,0,0,0,0,0,0,0,0,0,0,0,0,0,0,0,0,0,0,0,0,0,0,0,0,0,0,0,0,0,0,0,0,0,0,0,0,0,0,0,0,0,0,0,0,0,0,0,0,0,0,0,0,3.0763,3.0763,0,3.0751,3.075,3.075,3.0761,3.0762,3.0762,3.0762,3.0746,3.0745,3.0744,0,0,0,0,0,0,0,0,0,0,0,0,0,3.0795,3.0794,3.0763,3.0763,3.0763,3.0751,3.075,3.075,3.0761,3.0762,3.0762,3.0763,3.0746,3.0745,3.0744,0,0,0,0,0,0,0,0,0,0,0,0,0,3.0781,3.0794,3.0763,3.0767,3.0767,3.0751,3.075,3.075,3.0761,3.0762,3.0762,3.0763,3.0746,3.0745,3.0744,3.0721,0,0,3.074,3.0739,0,0,0,0,0,0,0,0,3.0782,3.078,3.0767,3.0767,3.0767,3.0758,3.0755,3.074,3.0761,3.0763,3.0762,3.0763,3.0749,3.0747,3.0743,3.0721,3.072,3.0739,3.0739,3.0738,3.0738,0,0,0,0,0,0,0,3.0783,3.0781,3.0758,3.0766,3.0767,3.0768,3.0767,3.0752,3.0752,3.0763,3.0764,3.0762,3.0749,3.0745,3.0743,3.072,3.0739,3.0738,3.0737,3.0737,3.0679,3.0678,0,0,0,0,0,0,3.0784,3.0781,3.0759,3.0758,3.0776,3.0767,3.0766,3.076,3.0752,3.0752,3.0762,3.0763,3.0747,3.0745,3.0742,3.0717,3.0738,3.0737,3.0736,3.068,3.0679,3.0678,0,0,0,0,0,0,3.0785,3.0782,3.0759,3.077,3.0767,3.0766,3.0759,3.076,3.0755,3.0752,3.0751,3.0757,3.0747,3.0744,3.0727,3.0716,3.0736,3.0735,3.0681,3.068,3.0679,3.0664,0,0,0,0,0,0,3.0785,3.0782,3.0774,3.077,3.0767,3.0745,3.0759,3.0759,3.0753,3.0755,3.0747,3.0747,3.0747,3.0729,3.0726,3.0715,3.0734,3.0682,3.068,3.0679,3.0666,3.0663,3.066,0,0,0,0,0,3.0786,3.0769,3.0774,3.0771,3.0757,3.0744,3.0742,3.0744,3.0752,3.0744,3.0742,3.0747,3.0718,3.0727,3.0724,3.0712,3.0682,3.0681,3.0679,3.0667,3.0663,3.066,0,0,0,0,0,0,3.0771,3.0769,3.0773,3.0755,3.075,3.0746,3.0735,3.074,3.0732,3.0733,3.0735,3.0733,3.0715,3.0712,3.0722,3.0691,3.0701,3.0699,3.0693,3.069,3.0687,3.0688,3.0733,0,0,0,0,0,3.0766,3.0756,3.0755,3.0738,3.0736,3.0736,3.073,3.0733,3.0727,3.0725,3.0721,3.0714,3.0704,3.0697,3.0687,3.0666,3.0664,3.0656,3.0653,3.0651,3.0649,3.0638,3.0634,3.0673,3.0673,3.0673,0,0,3.0754,3.0752,3.0745,3.0735,3.0731,3.0721,3.0734,3.0722,3.0714,3.0722,3.0706,3.0704,3.0696,3.0677,3.0669,3.0674,3.0638,3.0649,3.0647,3.0646,3.0636,3.0632,3.0629,3.0672,3.0672,3.0672,0,0,3.0727,3.0725,3.0711,3.0708,3.0703,3.0703,3.07,3.0696,3.0695,3.068,3.0686,3.0676,3.0658,3.0653,3.0648,3.0621,3.0625,3.0618,3.0603,3.0592,3.0589,3.0587,3.0577,3.0574,3.0615,3.0615,3.0615,0,3.0713,3.0698,3.0703,3.0692,3.0687,3.0696,3.0682,3.0678,3.0669,3.0665,3.0672,3.065,3.0646,3.0626,3.062,3.0615,3.0611,3.0618,3.059,3.0587,3.0584,3.0575,3.0572,3.0614,3.0615,3.0615,3.0615,0,3.0681,3.0671,3.0661,3.0654,3.0648,3.0635,3.0638,3.0631,3.0634,3.0634,3.0618,3.0614,3.0604,3.0599,3.0601,3.058,3.0583,3.059,3.06,3.058,3.0571,3.0568,3.0613,3.0613,3.0614,3.0614,0,0,3.0643,3.0641,3.0637,3.0634,3.063,3.0622,3.061,3.0601,3.0595,3.059,3.0579,3.0564,3.0571,3.0565,3.0567,3.0558,3.0537,3.0565,3.0565,3.056,3.0513,3.0508,3.0504,3.0541,3.054,3.054,3.0514,0,3.0616,3.0596,3.0601,3.058,3.0571,3.058,3.0569,3.0565,3.0565,3.0557,3.0556,3.0546,3.0555,3.0552,3.0543,3.0542,3.0528,3.0544,3.053,3.053,3.0531,3.05,3.0494,3.047,3.0511,3.051,3.051,0,3.0582,3.0577,3.0556,3.0555,3.0551,3.0541,3.0534,3.0527,3.0522,3.0523,3.0518,3.0522,3.0509,3.0521,3.0503,3.0514,3.0509,3.0507,3.0507,3.0505,3.0518,3.0497,3.0462,3.0459,3.0504,3.0505,3.0505,0,3.0556,3.0544,3.053,3.0528,3.0525,3.0519,3.0517,3.0514,3.0509,3.0502,3.0499,3.0491,3.0486,3.048,3.0482,3.049,3.0464,3.0475,3.0463,3.0463,3.0456,3.0457,3.042,3.0454,3.0454,3.0454,3.0454,0,3.0526,3.0513,3.0519,3.051,3.0496,3.0501,3.0487,3.0486,3.0483,3.0474,3.0481,3.0473,3.0476,3.0467,3.0468,3.0454,3.0452,3.0451,3.0452,3.045,3.045,3.0446,3.0448,3.0453,3.0453,3.0453,3.0454,0,3.0494,3.0498,3.0483,3.0483,3.0483,3.0472,3.0472,3.0464,3.0465,3.0453,3.0451,3.0452,3.0443,3.0444,3.0433,3.0434,3.0416,3.0418,3.0418,3.0418,3.0406,3.0407,3.0365,3.036,3.0397,3.0397,3.0396,0,3.0474,3.0464,3.0464,3.0459,3.0458,3.045,3.0445,3.045,3.0445,3.044,3.0433,3.0424,3.0417,3.0402,3.0401,3.0393,3.0395,3.0381,3.0393,3.0393,3.0394,3.0395,3.0394,3.0378,3.0378,3.0377,3.0377,0,3.0438,3.0441,3.0435,3.0429,3.0424,3.042,3.0416,3.0412,3.0416,3.041,3.0401,3.0396,3.0386,3.0377,3.037,3.0368,3.0373,3.0373,3.037,3.0368,3.0368,3.0368,3.041,3.0374,3.0374,3.0374,3.0375,3.0375,3.0412,3.0404,3.0403,3.0396,3.0394,3.0391,3.0383,3.0384,3.0377,3.037,3.0374,3.0363,3.036,3.0351,3.0348,3.034,3.0345,3.034,3.0339,3.0337,3.0336,3.037,3.0338,3.0338,3.0338,3.0339,3.0339,0,3.0376,3.0376,3.037,3.0366,3.036,3.0368,3.0364,3.0359,3.035,3.0347,3.0341,3.0331,3.0323,3.0322,3.0315,3.0308,3.0311,3.0306,3.0306,3.0306,3.0332,3.0335,3.0304,3.0304,3.0304,3.0304,3.0304,3.0304,3.0357,3.0345,3.0348,3.0334,3.0334,3.0325,3.0323,3.032,3.0318,3.0307,3.0301,3.0301,3.0299,3.0291,3.0284,3.0284,3.0281,3.0275,3.0276,3.03,3.0304,3.0307,3.031,3.0275,3.0275,3.0251,3.0251,3.0251]}]]